Time,TemperatureF,DewpointF,PressureIn,WindDirection,WindDirectionDegrees,WindSpeedMPH,WindSpeedGustMPH,Humidity,HourlyPrecipIn,Conditions,Clouds,dailyrainin,SoftwareType,DateUTC
2013-08-13 00:12:00,82.0,74.0,-100.00,ENE,77,12.0,17.0,78,-99.99,,,-99.99,,2013-08-13 04:12:00,
2013-08-13 00:23:00,82.0,74.0,-100.00,East,91,16.0,21.0,77,-99.99,,,-99.99,,2013-08-13 04:23:00,
2013-08-13 00:53:00,82.0,74.0,-100.00,ENE,59,12.0,19.0,78,-99.99,,,-99.99,,2013-08-13 04:53:00,
2013-08-13 01:12:00,82.0,73.0,-100.00,SE,128,18.0,25.0,74,-99.99,,,-99.99,,2013-08-13 05:12:00,
2013-08-13 01:21:00,82.0,74.0,-100.00,ESE,120,16.0,24.0,76,-99.99,,,-99.99,,2013-08-13 05:21:00,
2013-08-13 01:52:00,82.0,74.0,-100.00,ENE,59,13.0,20.0,76,-99.99,,,-99.99,,2013-08-13 05:52:00,
2013-08-13 02:21:00,82.0,74.0,-100.00,ESE,104,10.0,19.0,77,-99.99,,,-99.99,,2013-08-13 06:21:00,
2013-08-13 02:52:00,82.0,75.0,-100.00,SE,129,16.0,21.0,79,-99.99,,,-99.99,,2013-08-13 06:52:00,
2013-08-13 03:21:00,82.0,74.0,-100.00,SE,124,13.0,21.0,77,-99.99,,,-99.99,,2013-08-13 07:21:00,
2013-08-13 03:52:00,81.0,74.0,-100.00,ESE,113,13.0,19.0,79,-99.99,,,-99.99,,2013-08-13 07:52:00,
2013-08-13 04:22:00,82.0,74.0,-100.00,ESE,122,17.0,23.0,78,-99.99,,,-99.99,,2013-08-13 08:22:00,
2013-08-13 04:52:00,82.0,74.0,-100.00,SE,146,6.0,15.0,76,-99.99,,,-99.99,,2013-08-13 08:52:00,
2013-08-13 05:22:00,83.0,75.0,-100.00,SSW,208,7.0,13.0,76,-99.99,,,-99.99,,2013-08-13 09:22:00,
2013-08-13 05:54:00,83.0,74.0,-100.00,SE,136,8.0,16.0,75,-99.99,,,-99.99,,2013-08-13 09:54:00,
2013-08-13 06:23:00,83.0,74.0,-100.00,SE,146,6.0,14.0,74,-99.99,,,-99.99,,2013-08-13 10:23:00,
2013-08-13 06:53:00,83.0,74.0,-100.00,SE,127,6.0,12.0,74,-99.99,,,-99.99,,2013-08-13 10:53:00,
2013-08-13 07:22:00,83.0,74.0,-100.00,SSW,195,7.0,14.0,74,-99.99,,,-99.99,,2013-08-13 11:22:00,
2013-08-13 07:52:00,83.0,74.0,-100.00,SSE,155,6.0,15.0,74,-99.99,,,-99.99,,2013-08-13 11:52:00,
2013-08-13 08:21:00,84.0,74.0,-100.00,SSW,207,5.0,10.0,72,-99.99,,,-99.99,,2013-08-13 12:21:00,
2013-08-13 08:52:00,85.0,75.0,-100.00,NE,46,5.0,11.0,71,-99.99,,,-99.99,,2013-08-13 12:52:00,
2013-08-13 09:22:00,84.0,74.0,-100.00,SW,219,5.0,13.0,72,-99.99,,,-99.99,,2013-08-13 13:22:00,
2013-08-13 09:52:00,86.0,74.0,-100.00,South,172,6.0,13.0,67,-99.99,,,-99.99,,2013-08-13 13:52:00,
2013-08-13 10:22:00,86.0,74.0,-100.00,SE,142,5.0,12.0,68,-99.99,,,-99.99,,2013-08-13 14:22:00,
2013-08-13 10:52:00,87.0,72.0,-100.00,SSE,166,5.0,13.0,62,-99.99,,,-99.99,,2013-08-13 14:52:00,
2013-08-13 11:22:00,88.0,73.0,-100.00,South,170,6.0,13.0,62,-99.99,,,-99.99,,2013-08-13 15:22:00,
2013-08-13 11:54:00,88.0,73.0,-100.00,SSW,210,6.0,13.0,62,-99.99,,,-99.99,,2013-08-13 15:54:00,
2013-08-13 12:23:00,89.0,73.0,-100.00,SW,221,5.0,10.0,60,-99.99,,,-99.99,,2013-08-13 16:23:00,
2013-08-13 12:54:00,90.0,72.0,-100.00,South,184,5.0,11.0,55,-99.99,,,-99.99,,2013-08-13 16:54:00,
2013-08-13 13:27:00,88.0,73.0,-100.00,SSE,150,6.0,11.0,61,-99.99,,,-99.99,,2013-08-13 17:27:00,
2013-08-13 13:46:00,-999.0,-99.9,-100.00,SSE,167,5.0,12.0,-999,-99.99,,,-99.99,,2013-08-13 17:46:00,
2013-08-13 13:56:00,90.0,72.0,-100.00,SSE,167,5.0,12.0,56,-99.99,,,-99.99,,2013-08-13 17:56:00,
2013-08-13 14:25:00,90.0,73.0,-100.00,SSE,160,8.0,17.0,57,-99.99,,,-99.99,,2013-08-13 18:25:00,
2013-08-13 14:56:00,89.0,72.0,-100.00,SE,146,8.0,16.0,58,-99.99,,,-99.99,,2013-08-13 18:56:00,
2013-08-13 15:25:00,90.0,73.0,-100.00,South,186,7.0,19.0,57,-99.99,,,-99.99,,2013-08-13 19:25:00,
2013-08-13 15:55:00,89.0,73.0,-100.00,South,170,7.0,15.0,59,-99.99,,,-99.99,,2013-08-13 19:55:00,
2013-08-13 16:22:00,90.0,73.0,-100.00,SSE,167,7.0,14.0,57,-99.99,,,-99.99,,2013-08-13 20:22:00,
2013-08-13 16:53:00,89.0,72.0,-100.00,SE,138,6.0,14.0,57,-99.99,,,-99.99,,2013-08-13 20:53:00,
2013-08-13 17:24:00,89.0,73.0,-100.00,North,4,6.0,16.0,60,-99.99,,,-99.99,,2013-08-13 21:24:00,
2013-08-13 17:54:00,88.0,73.0,-100.00,North,6,7.0,12.0,61,-99.99,,,-99.99,,2013-08-13 21:54:00,
2013-08-13 18:22:00,87.0,73.0,-100.00,SSE,159,6.0,16.0,64,-99.99,,,-99.99,,2013-08-13 22:22:00,
2013-08-13 18:57:00,87.0,73.0,-100.00,ESE,110,6.0,13.0,63,-99.99,,,-99.99,,2013-08-13 22:57:00,
2013-08-13 19:26:00,86.0,72.0,-100.00,WSW,239,7.0,18.0,63,-99.99,,,-99.99,,2013-08-13 23:26:00,
2013-08-13 19:57:00,85.0,72.0,-100.00,SSE,152,7.0,14.0,66,-99.99,,,-99.99,,2013-08-13 23:57:00,
2013-08-13 20:11:00,84.0,73.0,-100.00,NNE,18,9.0,16.0,70,-99.99,,,-99.99,,2013-08-14 00:11:00,
2013-08-13 20:22:00,84.0,74.0,-100.00,South,176,8.0,14.0,71,-99.99,,,-99.99,,2013-08-14 00:22:00,
2013-08-13 20:52:00,84.0,74.0,-100.00,SSE,155,7.0,14.0,72,-99.99,,,-99.99,,2013-08-14 00:52:00,
2013-08-13 21:21:00,83.0,73.0,-100.00,NNE,21,7.0,15.0,72,-99.99,,,-99.99,,2013-08-14 01:21:00,
2013-08-13 21:52:00,83.0,73.0,-100.00,South,183,7.0,14.0,73,-99.99,,,-99.99,,2013-08-14 01:52:00,
2013-08-13 22:22:00,83.0,74.0,-100.00,NE,51,8.0,13.0,74,-99.99,,,-99.99,,2013-08-14 02:22:00,
2013-08-13 22:52:00,83.0,74.0,-100.00,ESE,113,6.0,13.0,75,-99.99,,,-99.99,,2013-08-14 02:52:00,
2013-08-13 23:22:00,83.0,73.0,-100.00,South,179,7.0,17.0,73,-99.99,,,-99.99,,2013-08-14 03:22:00,
2013-08-13 23:43:00,83.0,73.0,-100.00,SSE,159,7.0,16.0,73,-99.99,,,-99.99,,2013-08-14 03:43:00,
2013-08-13 23:53:00,83.0,74.0,-100.00,North,10,6.0,10.0,75,-99.99,,,-99.99,,2013-08-14 03:53:00,